Time,TemperatureF,DewpointF,PressureIn,WindDirection,WindDirectionDegrees,WindSpeedMPH,WindSpeedGustMPH,Humidity,HourlyPrecipIn,Conditions,Clouds,dailyrainin,SoftwareType,DateUTC
2013-10-19 00:54:00,51.0,49.0,30.02,East,95,1.0,1.0,91,-99.99,,,-99.99,,2013-10-19 04:54:00,
2013-10-19 01:52:00,51.0,48.0,30.00,WNW,303,1.0,1.0,91,-99.99,,,-99.99,,2013-10-19 05:52:00,
2013-10-19 02:52:00,52.0,50.0,29.99,East,95,1.0,2.0,92,-99.99,,,-99.99,,2013-10-19 06:52:00,
2013-10-19 03:52:00,53.0,51.0,29.99,NNE,19,1.0,2.0,91,-99.99,,,-99.99,,2013-10-19 07:52:00,
2013-10-19 04:42:00,53.0,51.0,-100.00,North,-999,1.0,1.0,91,-99.99,,,-99.99,,2013-10-19 08:42:00,
2013-10-19 04:52:00,53.0,51.0,29.97,North,10,1.0,1.0,91,-99.99,,,-99.99,,2013-10-19 08:52:00,
2013-10-19 05:02:00,53.0,51.0,29.97,North,10,1.0,1.0,91,-99.99,,,-99.99,,2013-10-19 09:02:00,
2013-10-19 05:54:00,54.0,52.0,29.96,West,277,0.0,1.0,91,-99.99,,,-99.99,,2013-10-19 09:54:00,
2013-10-19 06:53:00,54.0,52.0,29.96,SE,127,0.0,1.0,91,-99.99,,,-99.99,,2013-10-19 10:53:00,
2013-10-19 07:52:00,55.0,53.0,29.96,SE,136,1.0,1.0,91,-99.99,,,-99.99,,2013-10-19 11:52:00,
2013-10-19 08:52:00,55.0,53.0,29.96,NNW,346,1.0,1.0,91,-99.99,,,-99.99,,2013-10-19 12:52:00,
2013-10-19 09:52:00,56.0,54.0,29.97,SSW,209,1.0,2.0,91,-99.99,,,-99.99,,2013-10-19 13:52:00,
2013-10-19 10:52:00,58.0,55.0,29.96,SE,131,1.0,2.0,90,-99.99,,,-99.99,,2013-10-19 14:52:00,
2013-10-19 11:55:00,59.0,56.0,29.96,ESE,117,1.0,2.0,88,-99.99,,,-99.99,,2013-10-19 15:55:00,
2013-10-19 12:53:00,60.0,57.0,29.94,SSW,207,2.0,4.0,88,-99.99,,,-99.99,,2013-10-19 16:53:00,
2013-10-19 13:52:00,62.0,58.0,-100.00,SW,235,4.0,8.0,86,-99.99,,,-99.99,,2013-10-19 17:52:00,
2013-10-19 14:52:00,63.0,58.0,-100.00,West,260,2.0,6.0,82,-99.99,,,-99.99,,2013-10-19 18:52:00,
2013-10-19 15:52:00,62.0,57.0,29.88,West,275,2.0,4.0,84,-99.99,,,-99.99,,2013-10-19 19:52:00,
2013-10-19 16:52:00,63.0,57.0,-100.00,West,263,3.0,6.0,82,-99.99,,,-99.99,,2013-10-19 20:52:00,
2013-10-19 17:54:00,62.0,57.0,-100.00,South,189,2.0,4.0,83,-99.99,,,-99.99,,2013-10-19 21:54:00,
2013-10-19 18:53:00,61.0,57.0,-100.00,East,99,2.0,3.0,86,-99.99,,,-99.99,,2013-10-19 22:53:00,
2013-10-19 19:52:00,60.0,57.0,-100.00,SSW,193,1.0,2.0,89,-99.99,,,-99.99,,2013-10-19 23:52:00,
2013-10-19 20:52:00,59.0,56.0,29.93,ESE,121,1.0,3.0,90,-99.99,,,-99.99,,2013-10-20 00:52:00,
2013-10-19 21:11:00,58.0,56.0,29.93,SE,141,1.0,2.0,90,-99.99,,,-99.99,,2013-10-20 01:11:00,
2013-10-19 21:52:00,57.0,54.0,29.94,NNE,12,1.0,1.0,91,-99.99,,,-99.99,,2013-10-20 01:52:00,
2013-10-19 22:52:00,54.0,52.0,29.94,North,-999,1.0,1.0,91,-99.99,,,-99.99,,2013-10-20 02:52:00,
2013-10-19 23:54:00,52.0,50.0,29.95,North,352,1.0,1.0,92,-99.99,,,-99.99,,2013-10-20 03:54:00,